Pearl, MS

12:47 AM CST on December 06, 2016 (GMT -0600)
Jackson-Evers International

Weather History for KJAN - September, 2013

Change the Weather History Date:

Saturday, September 28, 2013

  Actual Average Record
Temperature  
Mean Temperature 75 °F 71 °F  
Max Temperature 86 °F 83 °F 99 °F (1953)
Min Temperature 64 °F 60 °F 41 °F (1967)
Degree Days  
Heating Degree Days 0 1  
Month to date heating degree days 0 4  
Since 1 July heating degree days 0 4  
Cooling Degree Days 10 7  
Month to date cooling degree days 408 313  
Year to date cooling degree days 2172 2112  
Growing Degree Days 25 (Base 50)    
Moisture  
Dew Point 60 °F    
Average Humidity 66    
Maximum Humidity 87    
Minimum Humidity 45    
Precipitation  
Precipitation 0.00 in 0.11 in 2.00 in (1902)
Month to date precipitation 7.34 2.81  
Year to date precipitation 51.00 40.09  
Sea Level Pressure  
Sea Level Pressure 30.05 in    
Wind  
Wind Speed 5 mph (ESE)    
Max Wind Speed 12 mph    
Max Gust Speed 14 mph    
Visibility 10 miles    
Events      
T = Trace of Precipitation, MM = Missing Value Source: NWS Daily Summary

Daily Weather History Graph

Daily Weather History Graph

Search for Another Location

Airport or City:

Trip Planner

Search our weather history database for the weather conditions in past years. The results will help you decide how hot, cold, wet, or windy it might be!

Date:

Astronomy

Sep. 28, 2013 Rise Set
Actual Time 6:52 AM CDT 6:48 PM CDT
Civil Twilight 6:28 AM CDT 7:13 PM CDT
Nautical Twilight 5:59 AM CDT 7:41 PM CDT
Astronomical Twilight 5:30 AM CDT 8:10 PM CDT
Moon 12:57 AM CDT (9/28) 2:51 PM CDT (9/28)
Length of Visible Light 12h 45m
Length of Day
11h 56m
Waning Crescent, 36% of the Moon is Illuminated
Sep 28
Waning Crescent
Oct 4
New
Oct 11
First Quarter
Oct 18
Full
Oct 26
Last Quarter

Hourly Weather History & Observations

Time (CDT) Temp. Heat Index Dew Point Humidity Pressure Visibility Wind Dir Wind Speed Gust Speed Precip Events Conditions
12:54 AM 70.0 °F - 62.1 °F 76% 30.03 in 10.0 mi ESE 4.6 mph - N/A   Clear
1:54 AM 68.0 °F - 62.1 °F 81% 30.02 in 10.0 mi SE 4.6 mph - N/A   Clear
2:54 AM 66.9 °F - 61.0 °F 81% 30.02 in 10.0 mi SE 4.6 mph - N/A   Partly Cloudy
3:54 AM 66.0 °F - 60.1 °F 81% 30.02 in 10.0 mi SSE 3.5 mph - N/A   Clear
4:54 AM 64.9 °F - 60.1 °F 84% 30.03 in 10.0 mi Calm Calm - N/A   Clear
5:54 AM 64.9 °F - 59.0 °F 81% 30.05 in 10.0 mi SE 3.5 mph - N/A   Mostly Cloudy
6:54 AM 64.9 °F - 59.0 °F 81% 30.07 in 10.0 mi SE 3.5 mph - N/A   Mostly Cloudy
7:54 AM 68.0 °F - 60.1 °F 76% 30.08 in 10.0 mi SE 5.8 mph - N/A   Clear
8:54 AM 72.0 °F - 59.0 °F 64% 30.09 in 10.0 mi ESE 6.9 mph - N/A   Clear
9:54 AM 75.9 °F - 60.1 °F 58% 30.10 in 10.0 mi ESE 10.4 mph - N/A   Clear
10:54 AM 79.0 °F - 60.1 °F 52% 30.10 in 10.0 mi SE 9.2 mph - N/A   Clear
11:54 AM 81.0 °F 81.7 °F 61.0 °F 50% 30.10 in 10.0 mi East 6.9 mph - N/A   Clear
12:54 PM 81.0 °F 81.7 °F 61.0 °F 50% 30.08 in 10.0 mi Calm Calm - N/A   Partly Cloudy
1:54 PM 82.0 °F 82.4 °F 60.1 °F 47% 30.06 in 10.0 mi ESE 3.5 mph - N/A   Scattered Clouds
2:54 PM 82.0 °F 82.1 °F 59.0 °F 45% 30.04 in 10.0 mi ESE 6.9 mph - N/A   Mostly Cloudy
3:54 PM 82.9 °F 83.2 °F 60.1 °F 46% 30.02 in 10.0 mi ENE 5.8 mph - N/A   Scattered Clouds
4:54 PM 82.9 °F 82.8 °F 59.0 °F 44% 30.01 in 10.0 mi ENE 6.9 mph - N/A   Scattered Clouds
5:54 PM 81.0 °F 81.1 °F 57.9 °F 45% 30.01 in 10.0 mi East 4.6 mph - N/A   Scattered Clouds
6:54 PM 75.0 °F - 61.0 °F 62% 30.01 in 10.0 mi East 4.6 mph - N/A   Partly Cloudy
7:54 PM 70.0 °F - 62.1 °F 76% 30.04 in 10.0 mi East 4.6 mph - N/A   Clear
8:54 PM 69.1 °F - 61.0 °F 75% 30.04 in 10.0 mi East 4.6 mph - N/A   Clear
9:54 PM 68.0 °F - 60.1 °F 76% 30.05 in 10.0 mi ESE 4.6 mph - N/A   Clear
10:54 PM 66.0 °F - 60.1 °F 81% 30.06 in 10.0 mi SSE 3.5 mph - N/A   Clear
11:54 PM 66.0 °F - 60.1 °F 81% 30.06 in 10.0 mi SE 4.6 mph - N/A   Clear